Location: Newark
(40.9464°N, 15.0486°E)
Time: 14:22:02
(UTC+00:00)

LightSail 2 - Pass Details

Date: 08 December 2019
Orbit: 703 x 721 km, 24.0° (Epoch: 17 January)

Event Time Altitude Azimuth Distance (km) Brightness Sun altitude
Rises 16:10:28 0° 234° (SW) 3,095 10.5 -7.4°
Reaches altitude 10° 16:14:56 10° 199° (SSW) 2,169 8.3 -8.2°
Maximum altitude 16:16:13 11° 184° (S) 2,107 8.0 -8.4°
Drops below altitude 10° 16:17:30 10° 169° (S) 2,165 7.8 -8.6°
Sets 16:21:56 0° 134° (SE) 3,077 8.2 -9.4°
